• în România
  • Lista ţărilor
  • Pe 7 zile
  • Temperatura apei
  • Hartă satelitară
  • Meteo pe hartă
  • Widget-uri
  • user-avatar
    Intrare

    Meteo pe oră la Adelaide

    Astăzi, 30 Aprilie, Duminică

    Timp Temperatura Precipitaţii Vânt Presiune Umiditate
    00:00 +13°C° 0 mm 1 m/s 763 mmHg 91%
    01:00 +13°C° 0 mm 1 m/s 763 mmHg 91%
    02:00 +13°C° 0 mm 1 m/s 763 mmHg 91%
    03:00 +13°C° 0 mm 1 m/s 763 mmHg 90%
    04:00 +13°C° 0 mm 1 m/s 763 mmHg 90%
    05:00 +13°C° 0 mm 1 m/s 763 mmHg 89%
    06:00 +13°C° 0 mm 1 m/s 763 mmHg 89%
    07:00 +15°C° 0 mm 1 m/s 763 mmHg 81%
    08:00 +17°C° 0 mm 2 m/s 763 mmHg 74%
    09:00 +18°C° 0 mm 2 m/s 763 mmHg 66%
    10:00 +19°C° 0 mm 2 m/s 762 mmHg 63%
    11:00 +19°C° 0 mm 2 m/s 761 mmHg 59%
    12:00 +20°C° 0 mm 2 m/s 761 mmHg 55%
    13:00 +20°C° 0 mm 2 m/s 761 mmHg 54%
    14:00 +20°C° 0 mm 2 m/s 760 mmHg 53%
    15:00 +20°C° 0 mm 2 m/s 760 mmHg 52%
    16:00 +19°C° 0 mm 2 m/s 760 mmHg 58%
    17:00 +18°C° 0 mm 2 m/s 759 mmHg 64%
    18:00 +17°C° 0 mm 2 m/s 759 mmHg 70%
    19:00 +16°C° 0 mm 2 m/s 759 mmHg 74%
    20:00 +16°C° 0 mm 2 m/s 759 mmHg 78%
    21:00 +15°C° 0 mm 2 m/s 759 mmHg 82%
    22:00 +15°C° 0 mm 2 m/s 759 mmHg 82%
    23:00 +15°C° 0 mm 2 m/s 759 mmHg 83%

    Mâine, 1 Mai, Luni

    Timp Temperatura Precipitaţii Vânt Presiune Umiditate
    00:00 +15°C° 0 mm 2 m/s 758 mmHg 84%
    01:00 +14°C° 0 mm 3 m/s 758 mmHg 83%
    02:00 +14°C° 0 mm 3 m/s 758 mmHg 82%
    03:00 +14°C° 0 mm 3 m/s 758 mmHg 81%
    04:00 +14°C° 0 mm 3 m/s 758 mmHg 82%
    05:00 +14°C° 0 mm 4 m/s 758 mmHg 83%
    06:00 +14°C° 0 mm 4 m/s 758 mmHg 84%
    07:00 +15°C° 0,1 mm 4 m/s 758 mmHg 81%
    08:00 +17°C° 0,1 mm 4 m/s 759 mmHg 77%
    09:00 +17°C° 0,1 mm 5 m/s 759 mmHg 74%
    10:00 +17°C° 0,4 mm 5 m/s 759 mmHg 76%
    11:00 +18°C° 0,4 mm 4 m/s 759 mmHg 77%
    12:00 +18°C° 0,4 mm 4 m/s 759 mmHg 79%
    13:00 +17°C° 0,1 mm 4 m/s 759 mmHg 78%
    14:00 +17°C° 0,1 mm 4 m/s 759 mmHg 77%
    15:00 +17°C° 0,1 mm 4 m/s 759 mmHg 76%
    16:00 +15°C° 0 mm 4 m/s 760 mmHg 76%
    17:00 +14°C° 0 mm 3 m/s 760 mmHg 76%
    18:00 +14°C° 0 mm 3 m/s 761 mmHg 75%
    19:00 +13°C° 0 mm 3 m/s 761 mmHg 75%
    20:00 +13°C° 0 mm 3 m/s 762 mmHg 76%
    21:00 +12°C° 0 mm 3 m/s 762 mmHg 76%
    22:00 +12°C° 0 mm 3 m/s 762 mmHg 76%
    23:00 +12°C° 0 mm 3 m/s 762 mmHg 77%

    Poimâine, 2 Mai, Marţi

    Timp Temperatura Precipitaţii Vânt Presiune Umiditate
    00:00 +12°C° 0 mm 3 m/s 763 mmHg 77%
    01:00 +12°C° 0 mm 3 m/s 763 mmHg 77%
    02:00 +12°C° 0 mm 3 m/s 763 mmHg 76%
    03:00 +12°C° 0 mm 3 m/s 763 mmHg 75%
    04:00 +12°C° 0 mm 3 m/s 763 mmHg 75%
    05:00 +11°C° 0 mm 3 m/s 763 mmHg 75%
    06:00 +11°C° 0 mm 3 m/s 764 mmHg 75%
    07:00 +12°C° 0 mm 3 m/s 764 mmHg 69%
    08:00 +13°C° 0 mm 3 m/s 765 mmHg 63%
    09:00 +16°C° 0 mm 3 m/s 765 mmHg 57%
    10:00 +16°C° 0 mm 3 m/s 765 mmHg 55%
    11:00 +17°C° 0 mm 3 m/s 765 mmHg 53%
    12:00 +17°C° 0 mm 3 m/s 765 mmHg 51%
    13:00 +17°C° 0 mm 3 m/s 765 mmHg 53%
    14:00 +17°C° 0 mm 3 m/s 764 mmHg 54%
    15:00 +17°C° 0 mm 3 m/s 764 mmHg 56%
    16:00 +16°C° 0,1 mm 3 m/s 765 mmHg 61%
    17:00 +15°C° 0,1 mm 2 m/s 765 mmHg 67%
    18:00 +14°C° 0,1 mm 2 m/s 765 mmHg 72%
    19:00 +14°C° 0,1 mm 2 m/s 766 mmHg 76%
    20:00 +14°C° 0,1 mm 2 m/s 766 mmHg 79%
    21:00 +13°C° 0,1 mm 2 m/s 767 mmHg 83%
    22:00 +13°C° 0 mm 2 m/s 767 mmHg 84%
    23:00 +12°C° 0 mm 3 m/s 767 mmHg 85%

    3 Mai, Miercuri

    Timp Temperatura Precipitaţii Vânt Presiune Umiditate
    00:00 +12°C° 0 mm 3 m/s 767 mmHg 86%
    01:00 +12°C° 0 mm 3 m/s 767 mmHg 85%
    02:00 +11°C° 0 mm 3 m/s 767 mmHg 85%
    03:00 +11°C° 0 mm 3 m/s 767 mmHg 84%
    04:00 +11°C° 0 mm 3 m/s 768 mmHg 84%
    05:00 +10°C° 0 mm 3 m/s 768 mmHg 84%
    06:00 +10°C° 0 mm 3 m/s 768 mmHg 84%
    07:00 +11°C° 0 mm 3 m/s 769 mmHg 75%
    08:00 +12°C° 0 mm 3 m/s 769 mmHg 66%
    09:00 +13°C° 0 mm 3 m/s 770 mmHg 57%
    10:00 +14°C° 0 mm 3 m/s 770 mmHg 53%
    11:00 +16°C° 0 mm 3 m/s 769 mmHg 49%
    12:00 +17°C° 0 mm 2 m/s 769 mmHg 44%
    13:00 +17°C° 0 mm 2 m/s 769 mmHg 44%
    14:00 +17°C° 0 mm 2 m/s 768 mmHg 43%
    15:00 +17°C° 0 mm 2 m/s 768 mmHg 43%
    16:00 +15°C° 0 mm 2 m/s 768 mmHg 48%
    17:00 +13°C° 0 mm 3 m/s 769 mmHg 53%
    18:00 +12°C° 0 mm 3 m/s 769 mmHg 58%
    19:00 +11°C° 0 mm 3 m/s 769 mmHg 61%
    20:00 +11°C° 0 mm 3 m/s 770 mmHg 63%
    21:00 +10°C° 0 mm 3 m/s 770 mmHg 65%
    22:00 +10°C° 0 mm 2 m/s 770 mmHg 67%
    23:00 +10°C° 0 mm 2 m/s 770 mmHg 69%

    4 Mai, Joi

    Timp Temperatura Precipitaţii Vânt Presiune Umiditate
    00:00 +9°C° 0 mm 2 m/s 769 mmHg 71%
    01:00 +9°C° 0 mm 2 m/s 769 mmHg 73%
    02:00 +9°C° 0 mm 2 m/s 769 mmHg 74%
    03:00 +8°C° 0 mm 2 m/s 769 mmHg 75%
    04:00 +8°C° 0 mm 2 m/s 769 mmHg 77%
    05:00 +8°C° 0 mm 2 m/s 769 mmHg 79%
    06:00 +8°C° 0 mm 2 m/s 770 mmHg 81%
    07:00 +9°C° 0 mm 2 m/s 770 mmHg 73%
    08:00 +12°C° 0 mm 2 m/s 770 mmHg 66%
    09:00 +14°C° 0 mm 2 m/s 770 mmHg 59%
    10:00 +15°C° 0 mm 2 m/s 770 mmHg 52%
    11:00 +18°C° 0 mm 1 m/s 769 mmHg 46%
    12:00 +20°C° 0 mm 1 m/s 769 mmHg 39%
    13:00 +20°C° 0 mm 1 m/s 768 mmHg 40%
    14:00 +19°C° 0 mm 1 m/s 768 mmHg 40%
    15:00 +19°C° 0 mm 1 m/s 767 mmHg 40%
    16:00 +18°C° 0 mm 1 m/s 767 mmHg 47%
    17:00 +15°C° 0 mm 2 m/s 768 mmHg 54%
    18:00 +13°C° 0 mm 2 m/s 768 mmHg 61%
    19:00 +13°C° 0 mm 2 m/s 768 mmHg 62%
    20:00 +12°C° 0 mm 2 m/s 768 mmHg 63%
    21:00 +12°C° 0 mm 2 m/s 768 mmHg 64%
    22:00 +12°C° 0 mm 2 m/s 768 mmHg 63%
    23:00 +12°C° 0 mm 2 m/s 767 mmHg 63%

    5 Mai, Vineri

    Timp Temperatura Precipitaţii Vânt Presiune Umiditate
    00:00 +12°C° 0 mm 2 m/s 767 mmHg 62%
    01:00 +12°C° 0 mm 2 m/s 767 mmHg 61%
    02:00 +12°C° 0 mm 2 m/s 767 mmHg 61%
    03:00 +12°C° 0 mm 2 m/s 767 mmHg 60%
    04:00 +12°C° 0 mm 2 m/s 767 mmHg 60%
    05:00 +11°C° 0 mm 3 m/s 767 mmHg 60%
    06:00 +11°C° 0 mm 3 m/s 767 mmHg 60%
    07:00 +12°C° 0 mm 3 m/s 767 mmHg 56%
    08:00 +13°C° 0 mm 3 m/s 767 mmHg 51%
    09:00 +16°C° 0 mm 3 m/s 767 mmHg 47%
    10:00 +17°C° 0 mm 3 m/s 767 mmHg 43%
    11:00 +18°C° 0 mm 2 m/s 766 mmHg 39%
    12:00 +20°C° 0 mm 2 m/s 765 mmHg 35%
    13:00 +20°C° 0 mm 2 m/s 765 mmHg 34%
    14:00 +20°C° 0 mm 2 m/s 765 mmHg 33%
    15:00 +20°C° 0 mm 2 m/s 764 mmHg 32%
    16:00 +18°C° 0 mm 2 m/s 764 mmHg 37%
    17:00 +17°C° 0 mm 2 m/s 764 mmHg 42%
    18:00 +15°C° 0 mm 2 m/s 764 mmHg 46%
    19:00 +15°C° 0 mm 2 m/s 765 mmHg 47%
    20:00 +15°C° 0 mm 2 m/s 765 mmHg 47%
    21:00 +15°C° 0 mm 2 m/s 765 mmHg 47%
    22:00 +15°C° 0 mm 2 m/s 764 mmHg 47%
    23:00 +15°C° 0 mm 2 m/s 764 mmHg 47%
    Arată mai mult